[[{"header":{"parameterUnit":"m.s-1","parameterCategory":1,"la1":30.2991,"la2":30.254,"lo1":-89.0895,"lo2":-89.0444,"dy":0.0017,"dx":0.0017,"nx":28,"ny":28,"refTime":"2024-04-06T09:00:00:Z","depth":0,"parameterNumber":2,"parameterNumberName":"U-component_of_WINDS"},"data":[0,0,0,0,0,0,0,0,0,0,0,0,0,0,0,0,0,0,0,0,0,0,0,0,0,0,0,0,0,0,0,0,0,0,0,0,0,0,0,0,0,0,0,0,0,0,0,0,0,0,0,0,0,0,0,0,0,0,-1.9035,-1.9036,0,-1.9117,-1.9118,-1.9119,-1.9142,-1.9141,-1.9141,-1.9141,-1.9226,-1.9228,-1.9231,0,0,0,0,0,0,0,0,0,0,0,0,0,-1.8899,-1.8902,-1.9035,-1.9036,-1.9037,-1.9117,-1.9118,-1.9119,-1.9142,-1.9141,-1.9141,-1.914,-1.9225,-1.9228,-1.9231,0,0,0,0,0,0,0,0,0,0,0,0,0,-1.8968,-1.8903,-1.9034,-1.9058,-1.9061,-1.9117,-1.9118,-1.9119,-1.9142,-1.9141,-1.9141,-1.914,-1.9224,-1.9228,-1.9232,-1.9271,0,0,-1.9244,-1.9246,0,0,0,0,0,0,0,0,-1.8964,-1.8973,-1.9053,-1.9056,-1.906,-1.9118,-1.9102,-1.917,-1.9142,-1.9111,-1.9141,-1.914,-1.9191,-1.9197,-1.9214,-1.9275,-1.9278,-1.9245,-1.9247,-1.9249,-1.925,0,0,0,0,0,0,0,-1.8959,-1.8969,-1.9067,-1.9054,-1.9058,-1.9065,-1.9074,-1.9115,-1.9154,-1.9114,-1.9116,-1.9125,-1.9192,-1.921,-1.9217,-1.928,-1.9244,-1.9248,-1.9251,-1.9252,-1.9377,-1.9378,0,0,0,0,0,0,-1.895,-1.8965,-1.9065,-1.907,-1.9009,-1.9068,-1.9078,-1.91,-1.9154,-1.9161,-1.9126,-1.9126,-1.9204,-1.9212,-1.922,-1.9269,-1.9249,-1.9253,-1.9255,-1.9376,-1.9377,-1.9378,0,0,0,0,0,0,-1.8947,-1.8959,-1.9061,-1.9018,-1.9032,-1.9071,-1.9096,-1.9102,-1.912,-1.9162,-1.917,-1.9137,-1.9204,-1.9214,-1.9258,-1.9272,-1.9254,-1.9258,-1.9375,-1.9376,-1.9378,-1.9367,0,0,0,0,0,0,-1.8943,-1.8957,-1.8972,-1.9018,-1.9034,-1.9098,-1.9097,-1.9104,-1.9127,-1.9128,-1.9175,-1.9182,-1.9204,-1.9252,-1.9262,-1.9277,-1.9261,-1.9374,-1.9376,-1.9377,-1.9366,-1.9368,-1.9369,0,0,0,0,0,-1.8938,-1.8966,-1.8973,-1.8985,-1.9053,-1.9098,-1.9107,-1.9132,-1.9128,-1.9144,-1.9171,-1.918,-1.9269,-1.9256,-1.9268,-1.9285,-1.9373,-1.9375,-1.9377,-1.9366,-1.9368,-1.9369,0,0,0,0,0,0,-1.8921,-1.8972,-1.898,-1.9024,-1.9056,-1.9102,-1.9122,-1.9133,-1.9168,-1.9167,-1.9197,-1.9207,-1.9249,-1.9272,-1.9256,-1.9326,-1.9321,-1.9326,-1.9309,-1.9311,-1.9312,-1.9306,-1.9265,0,0,0,0,0,-1.8922,-1.8954,-1.8998,-1.9032,-1.9048,-1.9082,-1.9103,-1.9119,-1.9154,-1.9168,-1.9199,-1.9233,-1.9268,-1.9291,-1.9326,-1.937,-1.9381,-1.9388,-1.9389,-1.939,-1.9393,-1.9419,-1.9422,-1.9385,-1.9385,-1.9385,0,0,-1.8925,-1.8957,-1.8975,-1.9029,-1.9056,-1.909,-1.9094,-1.9128,-1.9153,-1.9174,-1.9217,-1.924,-1.9281,-1.9325,-1.9346,-1.9345,-1.9406,-1.9393,-1.9393,-1.9396,-1.9421,-1.9424,-1.9427,-1.9386,-1.9386,-1.9385,0,0,-1.8946,-1.8974,-1.9006,-1.9033,-1.9074,-1.9097,-1.9104,-1.9149,-1.9165,-1.9209,-1.9225,-1.9256,-1.9317,-1.9345,-1.9367,-1.9401,-1.9411,-1.9411,-1.9418,-1.9443,-1.9446,-1.9448,-1.946,-1.9464,-1.9415,-1.9415,-1.9415,0,-1.8945,-1.8994,-1.9021,-1.9055,-1.9078,-1.9098,-1.9131,-1.9156,-1.9207,-1.9223,-1.9221,-1.9298,-1.9327,-1.9378,-1.9386,-1.9404,-1.9413,-1.9405,-1.9443,-1.9446,-1.9449,-1.946,-1.9465,-1.9414,-1.9414,-1.9414,-1.9414,0,-1.899,-1.9025,-1.9046,-1.9093,-1.9119,-1.9152,-1.9184,-1.9208,-1.9222,-1.9245,-1.929,-1.9325,-1.9368,-1.9382,-1.9396,-1.9435,-1.9433,-1.9437,-1.9433,-1.9452,-1.9463,-1.9468,-1.9414,-1.9414,-1.9414,-1.9414,0,0,-1.9002,-1.9064,-1.9071,-1.9094,-1.9141,-1.9169,-1.9203,-1.9245,-1.9264,-1.9299,-1.9329,-1.9381,-1.9385,-1.941,-1.9428,-1.9449,-1.9474,-1.9451,-1.9452,-1.9453,-1.9519,-1.9515,-1.9519,-1.9481,-1.9482,-1.9483,-1.9515,0,-1.9029,-1.909,-1.9115,-1.9165,-1.9198,-1.9218,-1.9248,-1.9281,-1.9304,-1.9336,-1.9362,-1.9397,-1.94,-1.9416,-1.9438,-1.9466,-1.9487,-1.9464,-1.9509,-1.9511,-1.9497,-1.9525,-1.9521,-1.9549,-1.952,-1.9521,-1.9521,0,-1.9068,-1.9103,-1.9156,-1.92,-1.9214,-1.9241,-1.9281,-1.9311,-1.9349,-1.9365,-1.9393,-1.941,-1.9448,-1.9443,-1.9496,-1.948,-1.95,-1.9517,-1.9519,-1.9523,-1.9516,-1.9529,-1.9559,-1.9563,-1.9528,-1.9528,-1.9527,0,-1.9071,-1.9131,-1.917,-1.9189,-1.9241,-1.9259,-1.9282,-1.932,-1.9343,-1.9379,-1.9395,-1.9435,-1.9456,-1.9487,-1.9515,-1.9509,-1.9565,-1.9563,-1.9579,-1.9578,-1.9589,-1.9588,-1.9621,-1.9604,-1.9604,-1.9604,-1.9604,0,-1.9098,-1.9129,-1.9172,-1.9196,-1.9232,-1.9261,-1.9297,-1.9321,-1.9355,-1.9384,-1.9405,-1.9433,-1.9469,-1.9501,-1.9524,-1.9564,-1.9574,-1.9587,-1.9593,-1.9585,-1.9583,-1.9598,-1.9596,-1.9605,-1.9605,-1.9604,-1.9604,0,-1.9106,-1.9136,-1.918,-1.9226,-1.9238,-1.9263,-1.9303,-1.9328,-1.9352,-1.939,-1.94,-1.9439,-1.9479,-1.951,-1.9562,-1.9577,-1.9619,-1.9625,-1.9605,-1.9608,-1.9623,-1.962,-1.9666,-1.9673,-1.9651,-1.9652,-1.9652,0,-1.912,-1.9145,-1.9194,-1.9215,-1.9237,-1.9271,-1.9295,-1.9326,-1.935,-1.9396,-1.9415,-1.9456,-1.949,-1.9553,-1.9586,-1.9626,-1.9633,-1.9646,-1.9639,-1.963,-1.9632,-1.963,-1.9633,-1.9646,-1.9647,-1.9647,-1.9647,0,-1.9143,-1.9157,-1.919,-1.9229,-1.9258,-1.929,-1.9323,-1.9339,-1.9376,-1.9403,-1.9443,-1.947,-1.9522,-1.9563,-1.9606,-1.9631,-1.9645,-1.9649,-1.9655,-1.9646,-1.9634,-1.964,-1.9607,-1.9647,-1.9647,-1.9647,-1.9647,-1.9647,-1.9154,-1.9177,-1.9215,-1.9252,-1.928,-1.9311,-1.9336,-1.9364,-1.9398,-1.9443,-1.9459,-1.9501,-1.9539,-1.9599,-1.9624,-1.9657,-1.9658,-1.9667,-1.9669,-1.967,-1.9669,-1.9629,-1.9666,-1.9666,-1.9666,-1.9666,-1.9666,0,-1.9178,-1.9203,-1.9237,-1.9282,-1.9311,-1.9322,-1.936,-1.9384,-1.942,-1.9454,-1.9488,-1.9534,-1.9574,-1.9611,-1.9652,-1.9672,-1.968,-1.9682,-1.968,-1.9686,-1.9666,-1.9657,-1.9675,-1.9675,-1.9675,-1.9675,-1.9675,-1.9675,-1.9193,-1.9232,-1.9251,-1.9304,-1.933,-1.937,-1.9391,-1.9419,-1.9447,-1.9498,-1.9531,-1.9554,-1.959,-1.9635,-1.9672,-1.9682,-1.9696,-1.9696,-1.9708,-1.9688,-1.9687,-1.9686,-1.9677,-1.9699,-1.9699,-1.9724,-1.9724,-1.9725]},{"header":{"parameterUnit":"m.s-1","parameterCategory":1,"la1":30.2991,"la2":30.254,"lo1":-89.0895,"lo2":-89.0444,"dy":0.0017,"dx":0.0017,"nx":28,"ny":28,"refTime":"2024-04-06T09:00:00:Z","depth":0,"parameterNumber":3,"parameterNumberName":"V-component_of_WINDS"},"data":[0,0,0,0,0,0,0,0,0,0,0,0,0,0,0,0,0,0,0,0,0,0,0,0,0,0,0,0,0,0,0,0,0,0,0,0,0,0,0,0,0,0,0,0,0,0,0,0,0,0,0,0,0,0,0,0,0,0,4.0079,4.0079,0,4.0077,4.0077,4.0077,4.0031,4.003,4.0029,4.0028,4.0025,4.0026,4.0027,0,0,0,0,0,0,0,0,0,0,0,0,0,4.0044,4.0045,4.0079,4.0079,4.0079,4.0077,4.0077,4.0077,4.0031,4.003,4.0029,4.0027,4.0025,4.0026,4.0027,0,0,0,0,0,0,0,0,0,0,0,0,0,4.0053,4.0046,4.0079,4.0056,4.0054,4.0077,4.0077,4.0077,4.0032,4.003,4.0028,4.0027,4.0024,4.0026,4.0027,4.0071,0,0,4.0032,4.0033,0,0,0,0,0,0,0,0,4.0052,4.0054,4.006,4.0058,4.0056,4.0052,4.0063,4.0075,4.0032,4.004,4.0028,4.0026,4.0036,4.0036,4.0039,4.0071,4.0071,4.0032,4.0033,4.0034,4.0034,0,0,0,0,0,0,0,4.0052,4.0054,4.0078,4.006,4.0057,4.0046,4.0045,4.0065,4.0048,4.0039,4.0036,4.0036,4.0034,4.0038,4.0039,4.0071,4.0032,4.0033,4.0034,4.0035,4.014,4.0141,0,0,0,0,0,0,4.0054,4.0054,4.0078,4.0078,4.005,4.0048,4.0047,4.0055,4.0047,4.0044,4.0038,4.0034,4.0036,4.0037,4.0039,4.009,4.0034,4.0035,4.0036,4.0138,4.014,4.0142,0,0,0,0,0,0,4.0054,4.0057,4.0078,4.0065,4.0067,4.0051,4.006,4.0056,4.006,4.0046,4.0043,4.0045,4.0035,4.0037,4.0064,4.0089,4.0036,4.0037,4.0136,4.0138,4.0141,4.0193,0,0,0,0,0,0,4.0053,4.0057,4.0074,4.0066,4.0068,4.0103,4.0061,4.0057,4.0063,4.0058,4.0052,4.0049,4.0034,4.0062,4.0065,4.009,4.0038,4.0133,4.0137,4.014,4.0189,4.0197,4.0204,0,0,0,0,0,4.0052,4.0088,4.0075,4.0078,4.0088,4.0105,4.0106,4.0087,4.0065,4.0081,4.0073,4.005,4.0086,4.0065,4.0068,4.0094,4.0131,4.0136,4.014,4.0185,4.0196,4.0204,0,0,0,0,0,0,4.0099,4.0087,4.0071,4.0106,4.0107,4.0097,4.0117,4.0099,4.0106,4.0101,4.0077,4.0076,4.0107,4.0104,4.008,4.0137,4.0105,4.011,4.0138,4.0148,4.0155,4.0155,4.0039,0,0,0,0,0,4.0114,4.0128,4.0117,4.0148,4.015,4.0134,4.014,4.0126,4.0126,4.0126,4.0119,4.012,4.0131,4.0139,4.0149,4.0188,4.0187,4.0208,4.0216,4.0222,4.0227,4.0248,4.0257,4.0156,4.0156,4.0156,0,0,4.0143,4.0138,4.0149,4.0158,4.0157,4.0173,4.0134,4.0153,4.0164,4.0129,4.0154,4.0149,4.0148,4.0182,4.0196,4.018,4.0254,4.0228,4.0233,4.0234,4.0253,4.0262,4.0271,4.0159,4.0158,4.0158,0,0,4.0206,4.0204,4.023,4.023,4.0229,4.0219,4.0225,4.0218,4.0214,4.0239,4.0213,4.0226,4.0247,4.0247,4.025,4.0314,4.0293,4.0318,4.0358,4.0379,4.0387,4.0394,4.0417,4.0425,4.0323,4.0323,4.0323,0,4.0243,4.0266,4.0246,4.0266,4.0271,4.024,4.0267,4.0268,4.027,4.0274,4.0256,4.0281,4.0278,4.0311,4.0327,4.0331,4.0337,4.0318,4.0387,4.0394,4.04,4.0422,4.043,4.0326,4.0326,4.0325,4.0325,0,4.0312,4.0329,4.035,4.0354,4.0361,4.0384,4.0368,4.0377,4.0363,4.0354,4.038,4.0376,4.0385,4.0392,4.0377,4.0423,4.0413,4.0392,4.0358,4.0413,4.0433,4.0441,4.033,4.0329,4.0328,4.0328,0,0,4.0403,4.0396,4.0404,4.0406,4.0403,4.0415,4.0438,4.0446,4.0455,4.0458,4.0476,4.0495,4.0475,4.0478,4.0464,4.0482,4.0533,4.0458,4.0458,4.0472,4.0584,4.06,4.061,4.052,4.0521,4.0522,4.0584,0,4.0464,4.0501,4.0484,4.0524,4.0539,4.051,4.053,4.053,4.0523,4.0535,4.0526,4.054,4.0513,4.0515,4.0531,4.0523,4.0555,4.0519,4.0536,4.0537,4.0537,4.062,4.0637,4.0695,4.0591,4.0593,4.0593,0,4.0539,4.0546,4.0587,4.0582,4.0587,4.0605,4.0612,4.0624,4.0624,4.0617,4.0622,4.0604,4.0625,4.0593,4.0623,4.0598,4.0604,4.0602,4.0603,4.0604,4.0568,4.0622,4.0713,4.0722,4.0605,4.0605,4.0604,0,4.0602,4.0621,4.0648,4.065,4.0645,4.0658,4.0656,4.0655,4.0661,4.0668,4.0672,4.068,4.0685,4.0692,4.0677,4.0655,4.0708,4.0675,4.0704,4.0704,4.0716,4.0715,4.0808,4.072,4.072,4.072,4.072,0,4.0671,4.0697,4.0676,4.0693,4.0721,4.0702,4.0731,4.0726,4.0725,4.074,4.0716,4.0731,4.071,4.0723,4.0711,4.0737,4.0739,4.0735,4.0731,4.0737,4.0737,4.074,4.0735,4.0722,4.0722,4.0721,4.0721,0,4.0745,4.0732,4.076,4.0753,4.0752,4.0773,4.0767,4.0782,4.0774,4.0794,4.0797,4.0784,4.0798,4.0783,4.0796,4.0788,4.0823,4.0814,4.0824,4.0821,4.085,4.0848,4.0948,4.096,4.0865,4.0866,4.0867,0,4.079,4.0809,4.0805,4.0814,4.0814,4.0828,4.0835,4.0816,4.0824,4.0826,4.0841,4.0853,4.0862,4.0886,4.0877,4.0887,4.0877,4.0912,4.0879,4.0884,4.0878,4.0877,4.0879,4.0919,4.092,4.0921,4.0921,0,4.0871,4.0863,4.0874,4.0883,4.0892,4.0898,4.0902,4.091,4.0892,4.0902,4.0916,4.0923,4.0936,4.0949,4.0956,4.0954,4.0935,4.0932,4.0939,4.0945,4.095,4.0947,4.0842,4.093,4.0929,4.0928,4.0928,4.0928,4.0931,4.0948,4.0947,4.096,4.0961,4.0966,4.098,4.0974,4.0985,4.0995,4.0983,4.1001,4.1001,4.1009,4.101,4.1023,4.1008,4.1019,4.1021,4.1024,4.1029,4.0948,4.1024,4.1024,4.1024,4.1024,4.1024,0,4.1011,4.1009,4.1022,4.1028,4.1039,4.102,4.1024,4.1034,4.105,4.1051,4.1061,4.1077,4.1089,4.1082,4.1092,4.1104,4.1096,4.1107,4.1106,4.1106,4.1041,4.1034,4.1114,4.1114,4.1114,4.1114,4.1114,4.1114,4.1053,4.108,4.1073,4.11,4.1098,4.1116,4.112,4.1124,4.1125,4.1145,4.1155,4.115,4.1148,4.1158,4.1168,4.1166,4.1171,4.1186,4.118,4.112,4.1111,4.1102,4.1095,4.1187,4.1187,4.1244,4.1245,4.1245]}]]